Tracking 19847 objects as of 16-Sep-2019
HD Live streaming from Space Station
objects crossing your sky now

FENGYUN 1C DEB

Track FENGYUN 1C DEB now!
10-day predictions


NORAD ID: 32425
Int'l Code: 1999-025DAM
Perigee: 683.3 km
Apogee: 1,040.0 km
Inclination: 96.7 °
Period: 102.0 minutes
Semi major axis: 7232 km
RCS: 0.003 m2 (small)
Launch date: May 10, 1999
Source: People's Republic of China (PRC)
Launch site: Taiyaun Space Center, China (TSC)

Note: This is SATELLITE DEBRIS
aabbcc
Your satellite tracking list
Your tracking list is empty




NASA's NSSDC Master Catalog

Two Line Element Set (TLE):
1 32425U 99025DAM 19252.11887963 +.00000113 +00000-0 +59658-4 0  9995
2 32425 096.7056 216.3678 0246625 318.5150 039.7533 14.11428943372438
Source of the keplerian elements: AFSPC